RH
83 84 83 83 83 83 84 84 85 85 85 86 86 87 90 90 86 58 12 21 48 88 76 57 58 59 61 71 70 73 70 70 64 58 69 49 50 46 42 48 48 50 50 51 61
81 80 82 83 83 84 84 85 84 85 85 86 86 86 89 90 48 14 32 76 82 86 52 63 69 62 63 73 74 70 70 54 59 59 68 75 52 44 46 56 69 68 62 63 64
80 82 82 83 83 84 85 85 85 85 85 86 86 86 88 80 15 11 71 83 82 74 44 45 56 58 65 68 72 67 62 50 59 54 55 56 60 52 46 60 58 66 70 66 65
82 83 83 83 84 84 85 85 85 85 86 86 86 86 89 48 17 26 80 85 85 48 42 46 57 60 66 64 55 50 48 42 50 53 60 71 60 69 57 66 51 57 60 62 65
83 84 84 85 85 85 85 85 86 86 86 86 85 85 34 6 4 62 82 80 59 46 40 44 57 51 48 41 47 51 46 49 49 56 64 62 64 64 67 60 54 63 62 61 58
84 85 85 85 85 85 86 86 86 86 85 85 84 84 21 4 13 61 61 62 52 41 38 42 49 40 40 36 45 46 48 56 56 59 60 66 69 67 74 55 64 66 60 57 57
84 84 84 85 85 85 85 86 86 86 85 84 82 61 18 4 30 27 58 58 52 43 34 31 32 31 29 43 46 46 58 58 62 59 62 56 66 74 65 57 66 63 60 58 58
84 84 84 84 85 86 87 88 88 85 84 82 80 46 13 8 12 12 10 13 37 43 35 24 27 31 28 40 44 46 51 51 59 57 62 57 57 63 63 55 59 61 61 59 58
86 86 87 88 89 90 91 90 80 81 80 80 45 20 10 22 12 10 7 4 14 31 38 25 27 30 37 43 36 41 41 51 58 55 63 60 60 63 64 58 55 56 57 56 55
88 89 90 90 91 92 92 78 81 73 63 54 35 26 12 11 10 11 11 5 7 17 23 16 30 30 29 38 35 34 38 45 43 52 62 68 63 61 61 58 58 50 51 52 51
89 90 90 91 92 92 74 33 25 23 31 20 16 17 13 12 12 11 9 8 4 15 21 26 30 32 30 29 27 33 32 31 35 55 56 59 59 52 62 60 58 51 47 48 47
89 90 90 88 92 92 62 27 30 31 32 24 25 23 18 15 14 12 7 8 7 12 22 28 29 24 24 27 27 28 30 31 50 55 51 46 46 45 54 60 57 52 46 43 41
89 89 86 88 91 54 40 30 34 32 27 19 17 18 16 15 14 11 7 7 7 14 17 26 23 25 26 27 30 27 28 30 30 55 48 50 44 57 55 57 61 50 45 40 40
90 86 87 90 50 56 32 38 38 31 20 12 11 12 15 16 15 11 8 6 8 12 15 17 19 26 28 27 25 29 24 25 40 37 29 46 34 44 46 61 60 55 47 43 39
89 86 86 88 58 32 34 41 29 19 13 12 13 10 12 15 12 10 10 6 7 11 14 18 17 25 26 23 24 25 22 23 36 34 38 46 41 31 44 49 56 52 49 43 40
88 88 85 71 66 43 44 36 18 16 14 19 18 20 14 12 11 7 9 7 7 9 10 14 13 17 20 22 22 21 21 34 37 29 28 29 30 26 39 40 37 45 46 45 39
91 94 82 65 28 50 41 19 16 19 18 25 24 21 16 14 10 9 10 10 8 12 15 11 10 10 17 21 19 18 19 27 31 30 30 35 44 26 23 31 33 36 40 36 39
93 87 82 63 59 57 21 19 25 31 28 23 24 16 17 16 14 10 9 10 8 8 10 15 16 9 9 16 19 23 20 24 40 33 28 41 31 22 22 22 28 28 30 31 33
90 58 47 40 56 40 21 30 42 40 35 36 24 20 20 20 22 13 11 10 8 8 10 10 13 7 7 9 16 20 25 16 20 32 28 24 26 20 17 22 22 25 29 32 34
59 40 38 41 42 25 28 44 34 32 38 33 35 32 28 27 23 17 19 21 27 10 8 10 11 7 6 7 10 15 16 23 21 31 36 25 26 19 20 18 28 32 28 32 34
47 31 37 35 28 27 33 36 36 30 38 42 42 38 39 37 37 24 20 30 30 26 10 7 8 9 8 9 8 12 15 18 16 19 25 29 23 20 21 24 26 26 32 33 37
44 34 39 26 28 38 36 37 46 34 34 42 44 45 47 44 39 28 29 30 33 33 20 8 6 9 8 6 7 7 12 14 18 29 20 20 20 19 34 29 34 35 39 37 39
49 47 37 23 32 36 38 33 34 34 36 42 40 48 42 50 45 39 36 32 36 37 47 19 9 10 9 6 8 8 9 11 12 15 23 21 18 25 38 43 50 49 52 48 46
42 35 36 37 42 41 41 42 38 36 40 44 45 45 41 40 50 47 39 38 38 40 50 35 16 12 7 9 7 10 9 10 9 13 15 17 17 15 18 38 55 59 62 62 51
49 52 56 46 40 41 41 44 42 41 40 43 42 46 52 47 39 49 50 40 32 50 38 33 28 24 17 9 8 7 6 10 12 10 13 13 14 12 14 44 71 71 68 69 69
50 48 51 49 49 41 51 47 46 43 45 48 46 48 50 54 47 53 52 47 48 45 42 36 29 30 23 17 14 34 41 19 10 23 13 18 12 49 66 68 76 80 79 80 81
65 60 46 56 44 40 42 44 46 47 38 42 45 52 50 45 42 42 43 47 46 50 48 46 40 36 23 24 41 39 57 45 43 52 39 26 35 73 79 85 86 90 85 89 90
Wind_Speed
16 16 15 15 16 16 16 17 17 17 17 17 17 17 16 16 15 4 4 2 9 19 12 11 7 8 2 1 2 1 1 3 2 4 7 7 5 5 7 10 3 3 10 14 18
17 16 17 17 16 16 16 16 17 17 17 17 17 17 16 16 4 5 3 14 24 19 15 14 11 10 1 1 2 2 2 2 2 7 9 4 3 10 7 5 7 14 16 19 17
17 17 17 18 18 17 17 16 16 17 18 17 17 17 16 13 5 1 5 12 21 14 9 5 10 6 3 2 2 2 2 5 4 10 12 9 5 2 11 4 7 20 20 19 17
18 19 19 19 19 18 18 18 17 16 16 17 17 18 19 3 4 3 4 19 15 6 11 8 6 4 1 2 4 2 5 1 7 7 6 5 9 7 4 3 8 18 19 16 17
18 18 19 19 19 19 19 19 18 16 15 15 14 15 5 2 4 3 14 15 15 9 11 7 5 3 3 2 4 5 2 3 7 8 8 6 6 5 6 6 16 17 17 17 15
19 18 19 19 20 20 19 19 19 17 13 11 11 11 2 5 2 5 12 16 10 13 10 8 5 4 7 4 1 4 7 8 7 7 7 7 4 1 2 9 17 19 18 16 14
19 19 19 20 20 20 20 20 19 17 12 9 6 2 1 8 5 5 8 8 6 9 9 9 6 4 2 2 6 10 8 6 6 5 3 6 5 5 9 12 17 19 16 15 14
19 19 20 20 21 21 21 21 18 12 7 5 2 1 7 2 1 4 5 4 6 10 6 4 2 3 4 9 4 4 3 4 5 5 3 3 1 8 13 15 15 17 15 15 15
19 19 20 21 21 21 21 17 7 7 7 9 3 1 7 4 3 4 9 6 8 6 6 5 1 3 4 6 3 3 3 4 3 8 4 9 1 5 14 13 13 14 15 15 15
19 20 20 21 21 20 21 3 3 3 4 3 2 3 4 1 3 1 5 8 4 9 3 5 4 6 5 8 6 5 5 3 3 8 9 8 9 3 12 15 14 15 16 16 16
18 19 20 21 21 20 8 2 2 1 1 5 3 5 6 7 4 3 4 9 7 8 11 8 9 12 16 14 6 6 6 2 1 3 8 11 10 11 13 15 16 16 16 17 17
18 19 19 21 20 19 3 5 5 3 9 6 11 11 9 5 5 3 8 11 12 13 9 8 15 16 13 9 9 7 5 3 2 4 6 4 11 10 15 18 17 17 18 17 18
18 18 19 19 21 3 3 7 4 5 4 6 3 4 3 9 8 7 11 5 13 16 18 15 14 11 12 11 10 8 9 5 1 5 5 4 6 9 11 14 15 17 17 18 19
18 18 19 22 0 3 3 3 7 6 4 4 2 1 3 2 6 9 10 7 6 20 14 12 9 16 14 16 12 14 9 5 6 4 3 3 3 6 13 16 19 20 19 20 20
18 17 15 8 2 1 4 8 1 4 4 13 2 2 0 6 6 4 3 5 14 9 11 12 14 14 18 19 14 10 9 6 5 3 3 4 5 2 9 16 21 24 22 22 23
20 16 8 2 1 4 9 7 3 2 3 6 6 7 8 3 3 3 6 1 3 7 4 9 2 13 13 8 15 9 8 6 4 2 9 3 8 5 7 15 19 21 23 23 22
19 15 3 1 3 7 7 1 2 1 6 8 8 11 6 4 1 1 7 11 10 14 14 9 8 2 4 15 4 10 12 8 8 6 10 3 6 11 7 9 15 24 26 25 23
19 2 2 2 5 7 2 0 5 6 4 7 7 11 5 9 2 3 4 9 2 5 8 14 14 12 7 9 13 16 16 9 12 10 10 2 8 3 3 7 8 14 22 23 24
8 1 1 5 1 2 1 5 4 5 8 9 11 5 7 5 6 1 3 4 2 4 10 10 17 2 8 6 12 9 12 11 6 1 7 4 5 11 8 4 7 12 14 21 23
1 1 4 5 4 1 4 4 1 6 8 3 6 6 6 11 10 6 2 8 8 3 5 6 7 7 8 6 5 10 12 11 7 15 15 8 6 8 7 4 3 8 16 19 23
1 2 3 5 2 5 4 3 1 6 9 7 5 4 5 6 6 6 6 4 10 6 4 7 4 4 6 15 18 8 9 7 10 8 14 10 9 5 9 7 10 9 12 16 20
2 1 5 2 3 2 2 3 6 7 9 5 2 5 4 7 5 5 5 4 13 6 2 1 6 9 11 2 6 18 19 18 11 12 7 10 15 3 5 6 5 4 5 11 14
3 2 2 3 2 2 2 3 4 8 7 7 7 6 5 5 6 4 5 3 12 8 7 2 5 10 9 6 4 12 12 17 8 8 18 15 10 3 2 4 5 1 1 7 13
1 0 3 5 2 2 2 3 3 4 3 3 5 1 6 3 1 6 8 4 12 9 10 6 3 9 13 14 9 6 16 15 18 13 13 14 18 10 6 5 5 4 6 5 7
4 3 3 3 5 5 1 2 4 6 3 8 2 7 5 5 6 4 4 10 5 10 8 5 4 4 6 5 7 9 12 15 19 20 19 17 19 15 10 1 5 4 6 7 7
3 1 2 2 1 1 3 2 3 5 3 4 6 6 5 4 7 11 8 4 4 8 8 8 1 3 4 4 11 6 5 11 13 7 11 8 17 4 6 8 7 5 7 7 6
1 1 3 2 2 1 1 1 3 2 1 3 5 5 7 6 11 14 13 16 17 12 6 7 6 5 4 7 10 7 4 4 7 5 4 11 1 2 9 8 7 8 8 9 8
Wind_Direction
4 360 356 353 350 346 341 337 335 334 332 330 331 330 329 328 315 172 239 173 172 161 164 156 160 149 165 265 156 78 107 90 91 140 100 130 129 73 109 122 82 105 151 134 145
0 358 352 348 345 340 337 334 332 331 329 328 329 328 326 334 291 251 315 143 147 162 159 174 158 153 127 242 220 212 52 98 163 128 125 120 123 124 141 115 83 103 113 134 151
353 349 345 342 338 335 332 331 328 328 326 326 326 326 323 324 276 54 136 155 161 171 160 160 142 138 176 197 211 168 238 132 137 128 121 124 101 127 149 80 154 145 143 151 157
345 342 340 337 334 330 328 326 324 323 322 322 326 326 321 265 216 5 157 162 159 178 151 144 152 151 235 221 182 234 249 189 142 140 124 115 129 121 125 136 148 145 149 156 162
340 338 335 332 329 326 326 322 318 318 317 317 321 327 334 228 259 6 136 152 162 175 179 169 189 195 271 295 167 219 119 90 137 136 105 127 115 122 113 132 142 144 158 165 174
338 336 334 329 326 325 323 318 314 310 306 305 314 318 309 228 24 130 149 159 178 180 184 190 206 240 299 10 252 156 132 109 105 135 142 144 147 48 182 152 149 157 169 172 185
339 336 333 328 326 326 323 319 311 301 291 288 299 313 168 242 102 65 141 188 205 208 191 219 244 297 297 81 124 125 117 108 129 158 163 159 161 210 152 160 159 168 175 179 191
337 334 331 327 328 328 325 322 314 296 258 227 225 210 252 129 42 245 188 209 219 207 251 278 200 274 264 119 137 105 125 193 153 183 151 219 258 154 164 162 170 175 182 187 192
332 330 329 328 329 329 327 327 348 66 119 145 139 314 259 310 235 221 195 215 181 207 246 302 227 208 193 163 188 179 165 214 173 206 164 214 252 138 167 180 177 185 187 194 195
329 330 329 328 329 332 326 279 96 84 109 194 121 264 246 81 302 217 179 195 158 158 205 202 195 194 178 187 206 177 188 185 232 192 208 208 232 162 185 189 192 191 194 197 201
328 328 329 328 330 331 333 206 317 164 219 249 256 271 289 312 252 200 162 161 176 175 180 185 195 193 193 206 225 159 151 206 156 178 206 224 242 231 193 204 196 197 196 199 199
329 327 331 330 327 324 262 78 91 333 302 262 260 264 272 313 303 261 165 175 183 187 162 168 211 204 194 175 201 192 179 186 126 172 225 234 251 227 203 206 206 194 200 205 203
332 331 333 329 322 355 7 121 15 175 279 301 244 250 284 197 224 247 184 165 187 191 190 196 198 174 174 183 190 208 212 173 336 167 233 278 250 186 208 210 205 217 208 211 208
333 337 334 327 221 341 114 12 321 200 321 299 352 60 142 170 245 220 203 187 185 202 186 213 184 180 193 196 196 219 183 174 148 204 327 228 306 213 193 200 210 213 210 208 211
336 335 332 339 330 265 354 328 109 225 307 342 338 44 177 228 330 169 196 161 205 169 186 189 189 182 200 201 193 221 172 196 156 183 272 189 259 148 191 206 209 212 212 213 207
334 330 320 121 226 283 319 318 194 242 281 336 331 340 339 216 265 320 196 118 106 154 198 197 182 208 198 186 191 159 121 87 88 192 257 237 240 245 191 219 212 208 209 214 210
333 333 205 122 21 333 315 308 198 346 344 350 335 330 324 314 309 285 188 183 186 184 192 181 186 177 164 193 177 191 189 216 223 216 240 72 229 262 239 228 214 201 205 205 209
332 17 197 243 297 327 300 84 54 342 337 331 325 319 345 354 18 337 164 188 84 195 181 200 206 190 160 217 195 205 207 216 216 220 240 127 241 234 278 256 220 212 210 205 204
322 76 59 353 358 248 81 58 28 343 325 317 313 338 355 357 329 310 64 204 238 203 210 197 221 208 208 175 184 180 209 217 230 329 238 216 251 267 270 255 233 224 202 201 197
13 71 27 331 326 341 66 98 127 356 323 273 355 14 343 344 357 1 64 25 354 8 309 182 205 208 181 183 186 222 172 188 206 212 223 216 255 242 255 340 274 233 215 202 200
357 82 27 334 289 39 54 55 328 7 8 360 13 337 340 340 319 356 10 60 354 330 286 156 238 145 167 202 198 176 193 214 227 237 222 230 238 205 258 313 296 270 222 203 194
58 72 9 325 37 61 45 5 360 357 8 10 25 350 333 330 322 333 355 30 2 339 322 143 213 214 200 96 289 216 209 205 210 190 232 245 240 87 304 301 302 299 209 194 201
55 344 7 299 56 64 90 66 43 9 13 7 7 7 354 326 317 354 338 25 7 20 350 26 214 196 213 186 160 214 199 203 203 216 217 224 225 10 7 20 41 16 110 177 188
63 132 32 52 44 41 45 34 11 24 36 347 2 318 341 316 315 313 328 321 339 358 0 224 207 241 216 229 189 187 202 214 221 222 212 224 242 227 275 4 36 41 43 65 183
14 64 18 31 63 76 84 29 2 5 29 8 34 19 354 304 314 316 337 321 326 6 8 20 259 217 256 226 189 206 198 192 212 226 230 233 240 251 287 173 82 62 68 74 82
45 352 94 76 331 76 23 65 350 355 315 353 336 335 320 293 310 304 325 319 310 333 353 353 331 301 233 195 198 168 190 204 219 207 222 239 250 13 83 101 83 85 81 71 61
82 115 285 26 70 221 89 27 41 319 250 276 317 303 299 302 304 286 273 272 272 293 312 323 330 340 175 176 153 166 151 202 158 146 218 212 306 109 95 73 77 79 79 80 63